Location: Ladrillo (historical)
(32.8195°N, 117.2231°W)
Time: 23:30:35
(UTC+00:00)

Altair - Pass Details

Date: 07 March 2021
Orbit: 1501 x 1683 km, 47.2° (Epoch: 16 April)

Event Time Altitude Azimuth Distance (km) Brightness Sun altitude
Rises 03:31:16 0° 277° (W) 4,635 11.6 -22.0°
Reaches altitude 10° 03:34:40 10° 287° (WNW) 3,664 10.6 -22.7°
Maximum altitude 03:42:55 35° 350° (N) 2,286 8.5 -24.4°
Enters shadow 03:49:08 18° 45° (NE) 3,181 8.8 -25.7°
